星链-2446 (STARLINK-2446 )

导读

STARLINK-2446是美国太空探索技术公司星链星座的卫星,于2021年3月11日发射升空,属于星链互联网星座组网任务的一员。星链系统旨在为全球提供低延迟、高速率的卫星互联网接入服务,该卫星入轨后参与星座组网,助力推进全球覆盖的太空互联网基础设施建设。

基本信息
目录编号:
47844
目录名称:
STARLINK-2446
国际标识:
2021-018BK
轨道中心:
EARTH
卫星名称:
星链-2446
卫星全名:
星链-2446 (STARLINK-2446 )
卫星状态:
在轨 (已飞行1925 天)
发射日期:
2021-03-11 UTC
国别 :
美国 (US)
星等 :
--
轨道信息
数据来源 国际轨道数据
星历时间: 2026-06-18T10:27:53+0800
13小时前
查看轨道信息
半长轴: 6847.041km
偏心率: 0.00011
轨道倾角: 53.161°
近地点辐角 99.707°
升交点赤经 138.779°
平近点角 260.406°
近地点: 468.15km
远地点: 469.658km
周期: 93.975分钟
每日圈数: 15.323163
详细信息
固有亮度:
5
最大亮度:
2.5
卫星平台:
Starlink V1.0
覆盖范围:
全球
运营商:
太空探索技术公司
运营商所在国:
美国
制造商(研发单位):
太空探索技术公司
制造商所在国:
美国
使用方式:
暂无
卫星简介
星链(Starlink)计划是由太空探索技术公司(SpaceX)提出的一个巨型低轨卫星互联网星座项目,计划在2019年至2024年间在太空搭建由约1.2万颗卫星组成的“星链”网络,其中1584颗将部署在地球上空550千米处的近地轨道,并从2020年开始工作。该卫星仍在工作。
2D轨道图
3D轨道图
轨道高度分析图
轨道倾角分析图
轨道综合分析图
查看轨道综合分析图